Location: Newark
(49.8348°N, 24.0280°E)
Time: 01:13:12
(UTC+00:00)

S-56A Canister/Altair - Pass Details

Date: 01 February 2020
Orbit: 633 x 2500 km, 38.9° (Epoch: 26 February)

Event Time Altitude Azimuth Distance (km) Brightness Sun altitude
Rises 21:03:08 0° 264° (W) 3,667 - -52.1°
Reaches altitude 10° 21:07:28 10° 238° (WSW) 2,394 - -52.6°
Maximum altitude 21:09:52 13° 212° (SSW) 2,045 - -52.8°
Drops below altitude 10° 21:12:03 10° 184° (S) 2,135 - -53.0°
Sets 21:15:28 0° 155° (SSE) 2,933 - -53.3°
